This is the latest recevied weather packets stored in our database for station/object K6HFP. If no packets are shown the sender has not sent any weather packets the latest 10 day(s).
| Time | Temp. | Humidity | Pressure | Rain* | Wind** | Luminosity | Snow |
|---|---|---|---|---|---|---|---|
| 1777925640 | 13.89° C | 83% | 1014 hPa | 0 mm | - | 350 W/m² | - |
| 1777925337 | 13.33° C | 83% | 1013.9 hPa | 0 mm | - | 349 W/m² | - |
| 1777925034 | 13.33° C | 85% | 1013.9 hPa | 0 mm | - | 387 W/m² | - |
| 1777924731 | 13.33° C | 85% | 1013.9 hPa | 0 mm | - | 387 W/m² | - |
| 1777924426 | 12.78° C | 85% | 1013.7 hPa | 0 mm | - | 334 W/m² | - |
| 1777924123 | 12.78° C | 86% | 1013.9 hPa | 0 mm | - | 397 W/m² | - |
| 1777923819 | 12.22° C | 88% | 1014 hPa | 0 mm | - | 372 W/m² | - |
| 1777923515 | 12.22° C | 86% | 1013.8 hPa | 0 mm | - | 256 W/m² | - |
| 1777923213 | 12.22° C | 87% | 1014 hPa | 0 mm | - | 197 W/m² | - |
| 1777922911 | 12.22° C | 88% | 1014.3 hPa | 0 mm | - | 146 W/m² | - |
| 1777922609 | 12.22° C | 87% | 1014 hPa | 0 mm | - | 146 W/m² | - |
| 1777922307 | 12.22° C | 87% | 1014.2 hPa | 0 mm | - | 142 W/m² | - |
| 1777922004 | 12.22° C | 87% | 1014.3 hPa | 0 mm | - | 195 W/m² | - |
| 1777921700 | 12.22° C | 88% | 1014.1 hPa | 0 mm | - | 224 W/m² | - |
| 1777921396 | 12.22° C | 88% | 1014.1 hPa | 0 mm | - | 169 W/m² | - |
| 1777921093 | 11.67° C | 88% | 1014.1 hPa | 0 mm | - | 139 W/m² | - |
| 1777920790 | 11.67° C | 88% | 1014.2 hPa | 0 mm | - | 116 W/m² | - |
| 1777920486 | 11.67° C | 88% | 1014.3 hPa | 0 mm | - | 120 W/m² | - |
| 1777920181 | 11.67° C | 89% | 1014.2 hPa | 0 mm | - | 124 W/m² | - |
| 1777919877 | 11.67° C | 89% | 1014.3 hPa | 0 mm | - | 113 W/m² | - |
| 1777919574 | 11.67° C | 89% | 1014.6 hPa | 0 mm | - | 99 W/m² | - |
| 1777919273 | 11.67° C | 89% | 1014.4 hPa | 0 mm | - | 81 W/m² | - |
| 1777918969 | 11.67° C | 89% | 1014.3 hPa | 0 mm | - | 69 W/m² | - |
| 1777918667 | 11.67° C | 89% | 1014.6 hPa | 0 mm | - | 59 W/m² | - |
| 1777918364 | 11.67° C | 89% | 1014.4 hPa | 0 mm | - | 63 W/m² | - |
* Rain latest hour (hover to see other rain measurements)
** Current wind speed in m/s (hover to see current wind gust speed)